Kuiper-00113

operational
NORAD ID: 65948 Int'l Des: 2025-228 Owner: KUIP Country: US Constellation: kuiper
NOTLE

About Kuiper-00113

Description loading...

Live Position

Loading 3D Globe...

Upcoming Passes

Altitude History

Altitude vs Time

uPlot chart will show altitude changes over time

Two-Line Element Set

1 65948U 25228B 25299.12494345 .00019436 00000-0 57685-3 0 9997
2 65948 51.8808 249.9203 0006348 174.5128 185.5929 15.34796222 3106
Epoch: Oct 26, 2025 • Age: 9 hours

Current Status

Altitude 479.6 km
Velocity 7.63 km/s
Sub-Earth Point -52.00°S, 59.38°W
Launch Date Oct 14, 2025
Age 12 days
Type internet

Technical Details

Classification Payload
Mass 490.00 kg
Dry Mass 490.00 kg
Total Mass 490.00 kg
Length 1.80 m
Diameter 0.70 m
Span 5.00 m
Shape Box + 2 pan
Manufacturer KUIP
Bus Type Kuiper
Phase Status In Orbit
Owner/State KUIP/US

Large Constellations

Loading constellations...